Wind_Speed
16 17 16 16 15 14 12 11 10 10 9 8 6 5 3 3 4 5 5 5 6 6 5 6 6 6 6 6 6 7 9 10 11 12 12 12 12 13 13 14 14 15 16 16 17 17 18 18 18
13 13 12 12 12 8 10 12 12 12 11 9 8 5 4 4 5 5 5 4 4 4 5 5 5 4 4 5 6 6 7 9 11 12 12 12 13 13 14 15 16 17 17 17 17 17 18 18 18
12 11 11 11 12 12 12 13 13 12 10 9 7 5 5 5 5 6 5 5 5 4 4 4 4 3 4 4 6 6 7 8 9 10 11 11 11 12 13 14 15 16 17 18 18 18 18 19 19
10 11 11 12 12 13 13 13 12 10 9 8 5 4 4 4 5 6 6 5 5 5 4 4 4 4 5 5 6 7 7 7 8 8 8 8 8 9 10 11 13 15 16 17 17 18 19 20 21
11 12 13 13 13 12 12 10 9 7 6 4 3 2 3 4 5 6 6 5 4 5 5 6 6 7 8 8 8 8 8 8 7 7 7 7 7 8 9 11 13 14 16 17 18 19 21 21 22
12 13 15 13 13 12 11 9 7 6 4 2 1 2 3 4 6 7 7 7 6 4 4 5 6 7 7 8 7 7 7 7 6 6 6 7 8 10 11 13 14 16 17 18 19 20 22 23 24
13 15 17 16 14 11 8 7 7 6 4 1 2 4 4 5 7 7 7 8 7 5 3 3 5 6 7 7 7 6 7 7 8 9 10 11 12 13 14 14 15 16 17 19 20 22 23 24 26
13 15 16 16 13 10 6 5 5 5 4 1 2 4 5 5 6 5 6 7 8 6 5 4 4 5 6 7 8 8 8 9 11 12 13 14 15 15 15 15 15 16 17 18 20 21 23 25 26
13 16 17 17 15 10 7 6 4 5 5 3 3 4 5 5 6 5 6 7 7 8 7 5 3 4 5 6 7 8 9 10 12 13 14 15 16 15 15 14 15 16 17 19 20 22 23 24 26
13 17 17 15 14 12 10 7 5 7 8 7 7 7 7 7 8 7 7 7 8 8 7 7 5 4 5 6 8 9 11 12 13 14 15 15 15 15 15 14 15 17 18 20 22 23 24 24 25
13 16 13 15 15 14 13 10 7 8 8 9 9 10 11 11 12 12 10 9 8 8 7 6 6 7 8 9 10 11 12 14 15 15 15 15 15 15 15 17 18 19 20 21 22 23 23 24 24
14 15 15 15 15 17 16 13 11 10 9 11 12 12 13 14 14 15 14 12 10 9 8 7 7 9 10 11 10 11 12 14 15 16 15 14 14 15 17 18 19 20 20 20 21 22 23 24 25
18 18 18 17 17 18 17 16 15 14 14 16 17 15 14 16 17 17 17 15 12 11 9 8 8 9 10 10 10 10 12 13 14 14 14 15 16 16 17 18 18 18 20 22 24 26 27 28 29
22 20 20 21 20 20 20 20 19 19 18 19 20 18 16 18 19 18 17 16 14 12 10 8 8 8 9 9 9 10 10 11 13 14 15 16 15 16 17 17 18 20 23 25 28 30 31 33 34
25 23 24 25 25 25 23 23 25 25 23 23 21 18 17 19 21 19 16 15 15 14 11 9 8 7 8 9 9 10 10 11 13 15 15 16 16 16 17 18 20 22 24 26 29 32 34 36 38
28 27 27 30 31 30 26 23 30 28 27 25 23 19 17 19 20 19 15 15 15 14 11 10 8 8 8 9 10 11 12 13 14 15 16 16 17 18 19 20 21 22 25 28 31 33 35 37 40
31 32 31 32 35 34 31 28 36 31 30 28 26 22 19 19 21 20 16 15 15 14 13 12 11 10 11 12 13 15 16 17 17 18 18 18 19 21 22 23 24 26 28 31 33 35 37 39 41
34 36 36 36 38 36 38 38 40 37 34 32 29 26 23 21 23 21 19 18 17 16 16 15 15 14 14 15 16 18 19 21 22 22 23 24 25 27 28 29 30 32 33 35 37 38 40 41 43
36 36 37 38 41 37 41 44 44 41 38 36 34 31 27 25 25 25 24 22 21 20 20 21 20 19 19 20 21 22 23 24 26 27 27 29 30 32 34 35 36 37 38 39 41 44 45 46 47
35 36 37 37 39 40 43 45 45 42 41 40 39 35 31 28 27 29 30 28 27 26 26 27 26 23 22 24 25 27 28 30 30 31 32 34 35 37 38 40 41 43 44 44 47 49 50 51 52
36 37 37 38 40 41 44 45 44 44 42 41 40 38 34 31 29 30 33 32 31 30 30 32 31 28 26 27 29 31 33 34 36 38 39 41 42 43 44 45 47 49 51 52 52 53 53 54 56
34 36 38 39 39 40 45 45 38 43 41 40 40 38 36 33 31 31 32 32 32 33 34 35 35 32 31 31 33 34 36 38 40 43 45 48 50 51 52 53 54 56 56 56 56 56 56 57 59
33 35 36 37 39 41 44 46 38 41 41 37 37 38 38 36 34 34 34 34 35 36 37 37 37 36 36 35 35 36 39 42 45 48 50 54 56 57 57 58 59 60 60 58 57 57 57 59 61
31 31 33 35 37 42 40 41 38 32 35 33 35 36 38 38 38 37 38 38 39 40 41 42 41 40 38 36 36 38 41 45 48 50 51 52 53 53 53 54 55 56 57 57 57 57 58 60 62
29 29 30 30 33 35 32 38 35 31 34 34 34 35 36 38 39 38 39 39 40 42 44 45 43 40 38 37 38 41 44 45 46 47 46 46 47 46 46 48 49 51 53 55 57 58 60 61 61
30 31 30 28 25 24 26 33 28 31 34 33 33 32 32 32 32 33 35 37 38 40 41 41 39 38 37 38 40 42 42 42 43 45 44 44 45 46 46 48 50 52 54 57 59 60 61 61 59
28 29 28 30 30 30 29 29 30 32 29 29 29 30 29 28 29 29 31 32 33 34 35 36 36 37 38 40 41 42 41 43 45 44 43 44 46 47 48 51 53 55 57 58 59 60 60 59 58
29 28 28 31 30 31 30 28 26 24 24 24 24 24 25 26 27 28 29 29 29 30 32 33 35 38 40 40 41 41 43 44 45 45 45 46 47 49 51 53 54 55 56 58 59 59 59 58 57
29 31 31 29 26 27 29 27 25 28 26 24 22 21 21 23 25 26 28 29 30 31 33 35 37 38 39 38 40 44 45 47 46 46 46 46 48 50 52 53 54 55 57 58 59 58 58 57 57
31 31 30 29 27 28 29 27 27 28 26 23 22 22 21 23 25 27 29 30 32 33 36 37 38 39 39 41 44 46 49 48 47 47 46 47 49 50 51 52 54 56 57 57 57 57 57 57 58
Wind_Direction
205 208 214 216 214 216 219 227 234 242 250 261 275 292 309 308 305 300 301 325 343 348 351 342 332 318 302 287 271 258 251 249 250 253 257 263 269 272 271 267 262 258 256 256 258 259 258 257 256
205 202 195 192 188 186 215 222 230 242 257 268 280 302 323 325 320 325 331 341 343 353 4 2 358 346 318 285 261 248 244 244 244 247 252 258 263 267 269 268 266 263 260 258 258 259 260 259 259
201 189 173 166 166 166 196 211 226 244 258 270 283 305 325 331 334 339 337 331 318 319 335 349 348 336 315 283 262 250 247 246 246 247 253 259 264 269 272 273 272 269 265 261 260 260 260 260 261
186 173 163 156 153 171 187 204 224 243 253 261 274 299 321 340 1 1 353 331 305 295 290 296 292 293 293 282 270 263 258 253 251 251 256 263 270 278 281 280 277 275 270 266 263 262 263 263 264
169 162 160 156 161 174 192 205 219 235 250 255 258 296 346 6 15 14 7 352 321 292 270 262 257 266 276 278 275 268 260 252 249 251 259 266 274 281 283 281 278 276 274 271 269 268 268 268 269
165 163 165 165 181 188 203 215 221 235 250 263 170 82 38 35 32 29 21 10 354 328 276 251 246 254 263 263 257 255 250 247 249 254 261 269 276 280 281 280 278 277 276 276 275 275 273 272 271
173 173 175 182 195 206 228 239 251 268 284 349 94 67 52 54 44 39 30 22 11 1 330 265 253 258 259 250 250 252 256 261 263 266 269 271 274 277 278 279 279 279 281 281 280 279 277 275 273
187 182 183 194 206 220 239 261 282 296 312 18 79 58 47 53 46 36 25 23 17 6 347 308 266 265 260 255 257 266 269 269 271 271 270 270 274 277 279 278 278 279 280 282 283 282 279 277 276
197 189 195 205 213 220 236 265 303 325 338 1 25 22 27 27 28 12 5 8 9 2 356 341 304 285 277 272 272 274 275 277 277 276 276 279 282 284 287 287 287 288 287 285 283 282 281 279 278
207 201 211 217 225 230 242 264 308 330 340 345 348 347 347 359 3 355 343 341 350 353 355 359 349 336 319 304 297 290 288 287 287 288 289 289 290 291 296 298 298 297 295 294 292 289 288 287 285
224 221 223 225 230 237 245 261 291 321 332 327 323 328 333 337 345 346 340 330 332 337 338 346 345 339 328 314 305 301 298 297 298 299 299 299 298 299 301 301 301 300 301 300 299 297 294 292 289
233 237 235 233 232 238 244 257 277 297 307 313 312 310 317 321 326 334 332 327 321 322 324 324 332 332 326 318 313 313 312 310 307 307 307 305 304 306 307 305 302 300 299 298 298 297 295 294 293
237 242 241 241 239 242 248 257 270 282 297 310 308 302 301 303 307 317 321 320 317 311 311 311 321 329 328 325 327 328 326 322 317 312 309 306 305 304 306 306 303 301 299 299 299 298 297 295 293
240 245 247 247 247 249 253 261 268 274 286 298 299 294 286 286 293 301 307 312 313 309 306 308 320 334 339 341 343 340 333 324 318 310 306 305 303 300 301 301 300 300 300 299 299 299 298 296 295
244 246 249 250 250 252 256 262 266 270 279 288 291 287 277 275 282 288 294 302 308 307 304 306 317 330 342 346 343 338 332 322 314 308 304 303 302 302 303 303 304 303 302 300 299 297 295 294 293
244 245 246 249 251 254 256 256 263 268 275 282 286 281 270 264 270 275 281 290 298 299 297 298 307 310 317 325 324 323 323 322 316 310 306 303 302 303 305 306 306 305 306 305 303 299 296 293 291
242 242 241 246 254 254 256 248 260 268 272 278 280 275 263 253 259 267 271 278 288 290 287 288 294 298 300 304 306 310 315 317 314 310 307 303 300 299 298 299 299 300 303 306 306 303 299 295 291
240 239 239 240 253 254 256 255 262 266 269 273 273 269 262 256 258 263 265 269 277 283 283 282 286 292 298 301 302 303 306 310 310 307 303 299 297 294 292 292 291 293 297 301 303 303 300 297 293
241 241 240 241 250 254 253 255 259 263 267 270 270 266 261 258 261 263 263 264 268 274 278 280 282 284 292 298 302 301 300 302 306 306 303 300 296 293 290 289 289 291 294 297 300 301 300 298 296
243 243 244 245 249 250 252 254 258 260 263 267 268 266 261 261 264 262 263 262 264 269 275 277 276 277 283 292 297 298 297 298 301 302 302 298 296 294 292 290 289 290 291 295 299 300 300 299 297
246 245 245 245 249 253 256 258 261 262 263 265 267 267 264 262 261 259 262 262 263 269 275 279 280 280 283 288 293 295 296 298 300 300 300 298 295 292 290 289 290 290 291 293 296 298 299 298 297
254 252 249 248 249 252 257 259 260 266 265 265 266 267 266 265 263 261 262 263 265 269 275 280 283 286 287 290 293 294 294 296 297 297 297 297 296 294 293 291 291 290 290 292 294 296 297 297 297
258 256 255 255 254 253 257 263 261 266 270 266 265 265 266 266 264 261 261 264 267 270 275 279 283 285 287 289 292 294 295 294 295 296 296 296 297 296 296 295 294 292 291 290 293 295 295 296 297
265 264 262 259 258 257 259 264 265 265 271 267 264 263 264 264 264 262 263 267 270 273 277 279 281 283 285 287 291 294 294 294 293 294 296 296 298 299 300 298 297 295 293 292 293 293 294 295 296
264 262 262 263 263 266 266 264 264 259 263 269 268 266 265 265 265 264 264 266 271 275 278 280 282 282 283 286 291 294 295 295 294 296 299 300 302 302 302 301 298 295 294 293 293 294 295 296 296
263 261 260 260 261 267 267 270 267 264 270 271 270 269 267 266 265 265 268 270 273 275 277 278 279 280 284 288 292 294 295 298 301 302 304 305 305 304 302 300 297 294 293 293 294 296 296 296 295
261 264 267 265 265 262 259 263 271 277 274 271 268 266 264 264 266 271 276 278 277 276 276 277 280 284 287 290 291 294 298 304 308 309 308 307 304 301 299 297 295 295 295 295 296 296 296 295 293
261 263 265 266 268 268 270 273 278 280 279 277 274 270 264 263 267 273 277 279 277 276 277 280 284 287 288 291 294 299 305 308 310 310 307 303 300 299 298 297 296 296 296 296 296 296 295 294 294
256 257 262 266 264 266 271 273 271 271 279 278 275 271 268 267 271 275 276 276 275 276 280 284 286 287 288 290 298 305 308 311 310 307 304 301 298 297 297 297 297 297 296 296 296 295 295 295 295
245 252 256 260 265 271 275 279 277 278 281 276 272 271 272 271 272 275 277 279 281 283 285 288 288 288 288 295 303 308 310 310 308 305 301 299 297 297 298 298 298 298 297 296 296 296 296 296 296
Height
5896 5897 5898 5900 5904 5907 5908 5908 5908 5907 5906 5905 5905 5904 5902 5902 5901 5901 5898 5895 5895 5894 5893 5892 5892 5892 5892 5892 5892 5892 5892 5892 5892 5891 5891 5891 5891 5891 5891 5891 5891 5892 5892 5892 5893 5893 5893 5894 5894
5895 5896 5898 5899 5903 5908 5908 5907 5906 5905 5905 5904 5903 5902 5901 5899 5898 5896 5895 5894 5893 5892 5892 5891 5890 5890 5890 5890 5890 5890 5890 5889 5889 5888 5888 5887 5887 5887 5887 5887 5888 5888 5889 5889 5889 5889 5890 5890 5890
5894 5896 5898 5899 5902 5907 5907 5905 5905 5904 5903 5903 5902 5901 5900 5898 5896 5894 5893 5892 5891 5890 5890 5889 5889 5889 5888 5888 5888 5887 5887 5887 5886 5886 5885 5885 5885 5885 5884 5884 5885 5885 5885 5885 5885 5885 5886 5886 5886
5894 5896 5898 5900 5902 5903 5903 5903 5902 5902 5901 5901 5901 5900 5898 5897 5895 5893 5891 5890 5889 5888 5887 5887 5887 5887 5886 5886 5885 5884 5884 5884 5883 5883 5883 5883 5883 5882 5882 5882 5882 5882 5882 5882 5882 5882 5882 5882 5881
5894 5896 5898 5900 5901 5902 5902 5902 5901 5901 5901 5901 5900 5899 5897 5895 5893 5891 5890 5888 5886 5885 5884 5884 5884 5884 5884 5883 5882 5882 5881 5881 5880 5880 5881 5880 5880 5880 5880 5880 5880 5880 5879 5879 5879 5879 5879 5878 5878
5893 5896 5899 5901 5901 5902 5902 5901 5901 5901 5901 5901 5900 5898 5896 5894 5892 5890 5889 5887 5885 5883 5882 5881 5881 5881 5881 5880 5880 5879 5879 5879 5879 5879 5879 5879 5879 5879 5878 5878 5878 5877 5877 5877 5876 5876 5875 5875 5874
5893 5895 5897 5899 5900 5901 5901 5901 5901 5901 5900 5900 5899 5897 5895 5893 5891 5890 5888 5886 5884 5882 5881 5880 5879 5878 5878 5877 5877 5877 5878 5878 5878 5878 5878 5877 5877 5876 5875 5875 5874 5874 5874 5873 5873 5872 5871 5870 5869
5892 5895 5896 5898 5899 5900 5900 5900 5900 5900 5900 5899 5899 5897 5895 5893 5891 5890 5888 5886 5885 5883 5881 5879 5878 5877 5876 5876 5875 5875 5875 5876 5876 5875 5875 5874 5873 5872 5871 5870 5870 5869 5868 5868 5868 5867 5866 5865 5864
5890 5895 5896 5896 5897 5898 5899 5899 5899 5899 5898 5898 5897 5897 5895 5893 5891 5890 5888 5886 5885 5883 5881 5879 5877 5876 5875 5874 5874 5873 5873 5872 5872 5872 5871 5870 5869 5868 5867 5866 5865 5865 5864 5863 5862 5862 5861 5859 5859
5889 5892 5893 5894 5895 5896 5897 5897 5897 5897 5896 5895 5895 5895 5893 5892 5890 5889 5888 5886 5885 5883 5881 5879 5877 5876 5874 5873 5872 5871 5871 5869 5869 5868 5867 5866 5865 5864 5863 5862 5861 5860 5859 5858 5857 5856 5855 5854 5853
5887 5888 5890 5892 5893 5894 5894 5895 5895 5895 5895 5895 5894 5893 5891 5890 5889 5888 5887 5885 5884 5883 5881 5879 5877 5875 5874 5872 5871 5869 5868 5866 5865 5864 5863 5862 5860 5859 5858 5857 5856 5855 5854 5853 5852 5851 5850 5848 5847
5885 5886 5887 5888 5890 5891 5891 5892 5892 5893 5894 5894 5892 5891 5890 5888 5887 5887 5885 5884 5883 5881 5879 5878 5876 5874 5872 5870 5868 5866 5865 5863 5862 5860 5859 5858 5857 5855 5854 5853 5852 5851 5849 5848 5847 5845 5844 5842 5841
5881 5882 5884 5885 5887 5887 5888 5889 5890 5889 5890 5889 5889 5889 5888 5886 5884 5884 5883 5882 5881 5879 5878 5876 5874 5872 5869 5867 5865 5863 5862 5860 5859 5857 5856 5854 5853 5852 5850 5849 5847 5846 5844 5842 5840 5839 5837 5835 5834
5877 5879 5880 5881 5882 5883 5885 5885 5886 5885 5886 5886 5886 5886 5885 5883 5881 5882 5881 5880 5878 5877 5875 5874 5872 5869 5867 5864 5862 5861 5859 5857 5856 5854 5852 5851 5849 5848 5846 5845 5843 5841 5839 5836 5834 5832 5830 5828 5826
5873 5876 5877 5877 5877 5879 5881 5882 5881 5880 5882 5882 5883 5883 5882 5880 5878 5878 5878 5877 5875 5873 5872 5871 5869 5867 5864 5862 5860 5858 5856 5854 5852 5851 5849 5847 5845 5844 5842 5840 5838 5835 5833 5831 5828 5826 5823 5821 5818
5870 5872 5874 5873 5873 5874 5879 5880 5875 5875 5877 5878 5878 5878 5878 5876 5874 5874 5874 5873 5871 5870 5869 5868 5866 5864 5862 5860 5858 5856 5854 5852 5850 5848 5846 5843 5841 5839 5837 5835 5832 5830 5827 5825 5822 5819 5816 5813 5809
5864 5867 5869 5870 5867 5869 5872 5875 5868 5870 5872 5873 5873 5873 5873 5872 5870 5870 5870 5869 5867 5866 5865 5864 5863 5861 5859 5857 5855 5853 5851 5849 5847 5845 5842 5840 5837 5834 5832 5829 5826 5823 5821 5818 5814 5811 5807 5804 5800
5858 5860 5862 5865 5861 5863 5864 5865 5862 5864 5866 5867 5867 5867 5868 5867 5866 5865 5865 5864 5863 5862 5860 5859 5858 5856 5855 5853 5851 5849 5847 5845 5842 5840 5838 5835 5832 5829 5826 5823 5819 5816 5813 5810 5806 5802 5798 5794 5789
5848 5851 5854 5856 5854 5856 5857 5856 5855 5857 5859 5861 5861 5862 5862 5862 5861 5860 5860 5860 5859 5857 5855 5854 5853 5851 5850 5848 5846 5844 5842 5840 5837 5835 5832 5829 5826 5823 5819 5816 5812 5808 5805 5801 5796 5792 5787 5782 5777
5841 5844 5846 5849 5848 5848 5847 5847 5848 5849 5852 5853 5854 5855 5856 5856 5856 5855 5854 5854 5853 5852 5850 5848 5846 5845 5843 5842 5840 5838 5835 5833 5831 5828 5825 5822 5819 5815 5811 5808 5804 5799 5795 5791 5786 5780 5775 5768 5763
5834 5837 5839 5841 5840 5839 5840 5840 5842 5841 5844 5845 5846 5847 5849 5850 5850 5849 5848 5848 5847 5846 5844 5841 5839 5837 5835 5833 5831 5829 5827 5825 5822 5819 5816 5813 5809 5806 5802 5798 5793 5789 5783 5778 5773 5768 5761 5755 5748
5828 5830 5831 5832 5833 5834 5831 5832 5837 5832 5835 5837 5839 5840 5841 5842 5842 5842 5841 5841 5840 5839 5837 5834 5831 5829 5827 5825 5823 5820 5818 5815 5813 5809 5805 5801 5798 5794 5790 5786 5781 5776 5770 5765 5760 5754 5747 5741 5733
5820 5821 5822 5824 5825 5826 5824 5824 5830 5825 5826 5830 5831 5832 5833 5834 5835 5835 5834 5834 5832 5830 5829 5826 5824 5821 5819 5816 5814 5811 5809 5806 5802 5798 5794 5789 5785 5781 5777 5773 5768 5763 5757 5752 5746 5739 5733 5725 5719
5813 5815 5815 5815 5816 5816 5818 5818 5820 5822 5818 5822 5823 5824 5825 5826 5827 5827 5827 5825 5824 5822 5820 5817 5815 5813 5810 5807 5805 5802 5799 5795 5792 5787 5783 5777 5773 5768 5763 5758 5753 5747 5742 5737 5731 5724 5718 5711 5704
5806 5808 5808 5808 5808 5809 5812 5809 5812 5813 5811 5813 5815 5816 5817 5817 5818 5818 5818 5817 5815 5813 5810 5807 5805 5803 5800 5798 5795 5792 5789 5785 5780 5776 5772 5766 5760 5755 5750 5744 5739 5733 5728 5721 5716 5709 5703 5696 5689
5799 5801 5803 5804 5806 5807 5805 5801 5805 5803 5803 5805 5807 5807 5808 5809 5809 5809 5808 5807 5806 5804 5801 5798 5796 5794 5792 5789 5786 5782 5778 5774 5770 5765 5760 5755 5748 5742 5737 5731 5725 5719 5713 5707 5701 5695 5688 5681 5675
5793 5793 5796 5796 5796 5797 5798 5799 5796 5795 5797 5798 5799 5799 5800 5801 5801 5800 5799 5798 5796 5794 5792 5790 5788 5785 5783 5779 5776 5772 5768 5763 5759 5754 5748 5742 5736 5730 5724 5718 5712 5706 5700 5693 5687 5680 5673 5666 5660
5787 5788 5789 5788 5789 5789 5791 5792 5794 5791 5791 5791 5791 5791 5792 5793 5793 5792 5791 5789 5788 5785 5783 5781 5779 5776 5773 5769 5765 5761 5757 5752 5747 5742 5736 5730 5723 5717 5711 5705 5699 5693 5686 5679 5672 5665 5658 5652 5645
5781 5781 5781 5783 5784 5784 5784 5788 5788 5785 5784 5784 5784 5784 5785 5785 5785 5784 5783 5781 5779 5777 5775 5773 5770 5766 5762 5759 5755 5751 5746 5740 5735 5729 5723 5717 5711 5705 5699 5692 5686 5679 5672 5665 5658 5651 5644 5638 5631
5774 5775 5776 5777 5777 5777 5776 5781 5778 5776 5776 5776 5777 5777 5777 5778 5777 5776 5775 5773 5771 5769 5766 5763 5760 5756 5752 5748 5744 5739 5733 5728 5722 5716 5710 5705 5699 5693 5686 5680 5673 5666 5658 5651 5644 5637 5630 5623 5617